| time (UTC) | temp F | wind direction | speed knots | gust knots | rain 1hr in | rain 24hr in | rain mn in | humidity % | barometer mb |
| 20260903063556 | 66 | 246 | 4.3 | 8.7 | 0.03 | 0.09 | 0.04 | 95 | 1015.3 |
| 20260903062556 | 66 | 254 | 5.2 | 10.4 | 0.03 | 0.09 | 0.04 | 95 | 1015.2 |
| 20260903062057 | 66 | 251 | 3.5 | 7.8 | 0.03 | 0.08 | 0.03 | 94 | 1015.2 |
| 20260903055057 | 66 | 248 | 6.1 | 10.4 | 0.02 | 0.06 | 0.02 | 94 | 1014.9 |
| 20260903054556 | 66 | 252 | 4.3 | 10.4 | 0.02 | 0.06 | 0.02 | 94 | 1014.8 |
| 20260903052556 | 66 | 240 | 4.3 | 10.4 | 0.01 | 0.06 | 0.01 | 93 | 1014.9 |
| 20260903052057 | 66 | 253 | 5.2 | 12.2 | 0.00 | 0.05 | 0.00 | 93 | 1015.0 |
| 20260903051556 | 66 | 247 | 4.3 | 11.3 | 0.00 | 0.05 | 0.00 | 94 | 1015.0 |
| 20260903051056 | 66 | 239 | 2.6 | 11.3 | 0.00 | 0.05 | 0.00 | 94 | 1015.0 |
| 20260903050056 | 66 | 236 | 4.3 | 10.4 | 0.00 | 0.05 | 0.00 | 94 | 1014.8 |
| 20260903045556 | 66 | 252 | 4.3 | 10.4 | 0.00 | 0.05 | 0.00 | 94 | 1014.8 |
| 20260903035056 | 65 | 248 | 4.3 | 12.2 | 0.00 | 0.05 | 0.00 | 93 | 1014.9 |
| 20260903033556 | 65 | 196 | 4.3 | 10.4 | 0.00 | 0.05 | 0.00 | 93 | 1015.3 |
| 20260903033056 | 65 | 243 | 4.3 | 8.7 | 0.00 | 0.05 | 0.00 | 92 | 1015.3 |
| 20260903023556 | 64 | 197 | 5.2 | 11.3 | 0.00 | 0.05 | 0.00 | 91 | 1015.3 |
| 20260903020057 | 66 | 248 | 7.0 | 17.4 | 0.00 | 0.05 | 0.00 | 82 | 1015.9 |
| 20260903015057 | 66 | 222 | 4.3 | 11.3 | 0.00 | 0.05 | 0.00 | 82 | 1015.8 |
| 20260903014555 | 66 | 223 | 6.1 | 11.3 | 0.00 | 0.05 | 0.00 | 82 | 1015.9 |
| 20260903014056 | 66 | 234 | 7.8 | 13.0 | 0.00 | 0.05 | 0.00 | 83 | 1015.9 |
| 20260903013556 | 66 | 239 | 4.3 | 8.7 | 0.00 | 0.05 | 0.00 | 83 | 1015.9 |
| 20260903013056 | 66 | 227 | 4.3 | 7.8 | 0.00 | 0.05 | 0.00 | 82 | 1016.0 |
| 20260903012556 | 66 | 228 | 6.1 | 8.7 | 0.00 | 0.05 | 0.00 | 81 | 1016.3 |
| 20260903012057 | 67 | 250 | 6.1 | 13.0 | 0.00 | 0.05 | 0.00 | 81 | 1016.3 |
| 20260903011555 | 67 | 239 | 4.3 | 10.4 | 0.00 | 0.05 | 0.00 | 79 | 1016.3 |
| 20260903011056 | 67 | 248 | 8.7 | 17.4 | 0.00 | 0.05 | 0.00 | 79 | 1016.3 |
| 20260903005556 | 67 | 261 | 4.3 | 13.9 | 0.00 | 0.05 | 0.00 | 78 | 1016.3 |
| 20260903005056 | 67 | 241 | 4.3 | 10.4 | 0.00 | 0.05 | 0.00 | 77 | 1016.4 |
| 20260903004555 | 67 | 241 | 5.2 | 10.4 | 0.00 | 0.05 | 0.00 | 77 | 1016.5 |
| 20260903003056 | 67 | 185 | 6.1 | 10.4 | 0.00 | 0.05 | 0.00 | 76 | 1016.7 |
| 20260903002555 | 67 | 230 | 6.1 | 13.9 | 0.00 | 0.05 | 0.00 | 76 | 1016.7 |
| 20260903002057 | 67 | 238 | 6.1 | 11.3 | 0.00 | 0.05 | 0.00 | 76 | 1016.8 |
| 20260903001556 | 67 | 226 | 4.3 | 13.9 | 0.00 | 0.05 | 0.00 | 76 | 1016.8 |
| 20260903001056 | 67 | 212 | 5.2 | 14.8 | 0.00 | 0.05 | 0.00 | 75 | 1016.9 |
| 20260903000055 | 67 | 237 | 6.1 | 11.3 | 0.00 | 0.05 | 0.00 | 75 | 1016.9 |
| 20260902235556 | 67 | 212 | 5.2 | 10.4 | 0.00 | 0.05 | 0.00 | 76 | 1016.9 |
| 20260902235056 | 67 | 231 | 6.1 | 12.2 | 0.00 | 0.05 | 0.00 | 76 | 1016.8 |
| 20260902234555 | 67 | 222 | 2.6 | 7.8 | 0.00 | 0.05 | 0.00 | 76 | 1016.9 |
| 20260902234055 | 67 | 219 | 5.2 | 10.4 | 0.00 | 0.05 | 0.00 | 76 | 1016.9 |
| 20260902232555 | 66 | 204 | 5.2 | 12.2 | 0.00 | 0.05 | 0.00 | 76 | 1017.2 |
| 20260902232055 | 66 | 233 | 6.1 | 10.4 | 0.00 | 0.05 | 0.00 | 76 | 1017.2 |
| 20260902231556 | 66 | 230 | 5.2 | 10.4 | 0.00 | 0.05 | 0.00 | 76 | 1017.3 |
| 20260902231056 | 66 | 214 | 4.3 | 17.4 | 0.00 | 0.05 | 0.00 | 76 | 1017.3 |
| 20260902230056 | 67 | 226 | 6.1 | 15.6 | 0.00 | 0.05 | 0.00 | 75 | 1017.5 |
| 20260902225556 | 67 | 215 | 5.2 | 10.4 | 0.00 | 0.05 | 0.00 | 75 | 1017.4 |
| 20260902225056 | 66 | 216 | 5.2 | 10.4 | 0.00 | 0.05 | 0.00 | 75 | 1017.5 |
| 20260902224556 | 66 | 230 | 4.3 | 10.4 | 0.00 | 0.05 | 0.00 | 75 | 1017.6 |
| 20260902221555 | 67 | 216 | 4.3 | 10.4 | 0.00 | 0.05 | 0.00 | 74 | 1017.6 |
| 20260902221056 | 67 | 214 | 5.2 | 10.4 | 0.00 | 0.05 | 0.00 | 74 | 1017.8 |
| 20260902214555 | 67 | 223 | 6.1 | 15.6 | 0.00 | 0.05 | 0.05 | 74 | 1017.9 |
| 20260902214056 | 67 | 224 | 4.3 | 12.2 | 0.00 | 0.05 | 0.05 | 75 | 1017.9 |
| 20260902213056 | 67 | 228 | 6.1 | 12.2 | 0.00 | 0.05 | 0.05 | 77 | 1018.0 |
| 20260902212555 | 67 | 246 | 6.1 | 12.2 | 0.00 | 0.05 | 0.05 | 77 | 1018.0 |
| 20260902212056 | 67 | 234 | 7.0 | 13.9 | 0.00 | 0.05 | 0.05 | 77 | 1018.2 |
| 20260902211555 | 67 | 225 | 6.1 | 11.3 | 0.00 | 0.05 | 0.05 | 78 | 1018.3 |
| 20260902211055 | 67 | 241 | 2.6 | 10.4 | 0.00 | 0.05 | 0.05 | 79 | 1018.1 |
| 20260902210055 | 67 | 249 | 2.6 | 7.0 | 0.00 | 0.05 | 0.05 | 80 | 1018.0 |
| 20260902205056 | 67 | 215 | 5.2 | 8.7 | 0.00 | 0.05 | 0.05 | 81 | 1018.2 |
| 20260902204555 | 67 | 193 | 4.3 | 7.0 | 0.00 | 0.05 | 0.05 | 81 | 1018.2 |
| 20260902201555 | 67 | 200 | 4.3 | 6.1 | 0.00 | 0.05 | 0.05 | 80 | 1018.4 |
| 20260902201055 | 67 | 215 | 2.6 | 6.1 | 0.00 | 0.05 | 0.05 | 80 | 1018.4 |
| 20260902195555 | 67 | 230 | 4.3 | 7.8 | 0.00 | 0.05 | 0.05 | 79 | 1018.6 |
| 20260902195056 | 67 | 200 | 3.5 | 7.0 | 0.00 | 0.05 | 0.05 | 79 | 1018.8 |
| 20260902194555 | 67 | 211 | 4.3 | 7.8 | 0.00 | 0.05 | 0.05 | 78 | 1018.7 |
| 20260902194057 | 67 | 228 | 2.6 | 7.0 | 0.00 | 0.05 | 0.05 | 78 | 1018.8 |
| 20260902192555 | 67 | 227 | 4.3 | 7.0 | 0.00 | 0.05 | 0.05 | 77 | 1018.8 |
| 20260902185555 | 68 | 240 | 4.3 | 8.7 | 0.00 | 0.05 | 0.05 | 78 | 1018.9 |
| 20260902185056 | 68 | 254 | 4.3 | 10.4 | 0.00 | 0.05 | 0.05 | 78 | 1018.9 |
| 20260902184555 | 68 | 217 | 3.5 | 8.7 | 0.00 | 0.05 | 0.05 | 78 | 1018.9 |
| 20260902184055 | 68 | 229 | 5.2 | 10.4 | 0.00 | 0.05 | 0.05 | 78 | 1018.9 |
| 20260902183555 | 68 | 225 | 3.5 | 6.1 | 0.00 | 0.05 | 0.05 | 78 | 1018.9 |
| 20260902183056 | 68 | 249 | 4.3 | 10.4 | 0.00 | 0.05 | 0.05 | 77 | 1018.9 |
| 20260902181555 | 68 | 245 | 4.3 | 10.4 | 0.00 | 0.05 | 0.05 | 77 | 1018.8 |
| 20260902181056 | 68 | 235 | 1.7 | 7.8 | 0.00 | 0.05 | 0.05 | 77 | 1018.9 |
| 20260902174555 | 68 | 244 | 4.3 | 10.4 | 0.00 | 0.05 | 0.05 | 76 | 1018.9 |
| 20260902174055 | 68 | 237 | 5.2 | 11.3 | 0.00 | 0.05 | 0.05 | 76 | 1018.9 |
| 20260902173556 | 68 | 233 | 4.3 | 8.7 | 0.00 | 0.05 | 0.05 | 76 | 1018.9 |
| 20260902164055 | 69 | 261 | 3.5 | 10.4 | 0.00 | 0.05 | 0.05 | 74 | 1019.0 |
| 20260902163554 | 69 | 219 | 2.6 | 7.0 | 0.00 | 0.05 | 0.05 | 73 | 1019.0 |
| 20260902163055 | 69 | 219 | 3.5 | 6.1 | 0.00 | 0.05 | 0.05 | 73 | 1019.0 |
| 20260902162555 | 69 | 265 | 2.6 | 8.7 | 0.00 | 0.05 | 0.05 | 72 | 1019.0 |
| 20260902162055 | 69 | 258 | 2.6 | 7.0 | 0.00 | 0.05 | 0.05 | 71 | 1019.1 |
| 20260902161555 | 69 | 231 | 2.6 | 8.7 | 0.00 | 0.05 | 0.05 | 70 | 1019.1 |
| 20260902161056 | 69 | 200 | 5.2 | 10.4 | 0.00 | 0.05 | 0.05 | 69 | 1019.3 |
| 20260902154555 | 69 | 229 | 4.3 | 8.7 | 0.00 | 0.05 | 0.05 | 70 | 1019.4 |
| 20260902154055 | 69 | 247 | 3.5 | 7.0 | 0.00 | 0.05 | 0.05 | 70 | 1019.5 |
| 20260902153555 | 69 | 234 | 3.5 | 8.7 | 0.00 | 0.05 | 0.05 | 70 | 1019.5 |
| 20260902153056 | 69 | 233 | 2.6 | 7.0 | 0.00 | 0.05 | 0.05 | 72 | 1019.5 |
| 20260902152555 | 69 | 202 | 4.3 | 8.7 | 0.00 | 0.05 | 0.05 | 73 | 1019.5 |
| 20260902152056 | 69 | 275 | 3.5 | 7.0 | 0.00 | 0.05 | 0.05 | 73 | 1019.5 |
| 20260902140054 | 71 | 226 | 5.2 | 11.3 | 0.00 | 0.05 | 0.05 | 65 | 1019.8 |
| 20260902135555 | 71 | 201 | 3.5 | 10.4 | 0.00 | 0.05 | 0.05 | 65 | 1019.7 |
| 20260902135055 | 71 | 243 | 7.0 | 11.3 | 0.00 | 0.05 | 0.05 | 64 | 1019.8 |
| 20260902134554 | 72 | 236 | 7.8 | 13.9 | 0.00 | 0.05 | 0.05 | 65 | 1019.8 |
| 20260902134056 | 71 | 244 | 3.5 | 10.4 | 0.00 | 0.05 | 0.05 | 67 | 1019.7 |
| 20260902133555 | 71 | 245 | 6.1 | 11.3 | 0.00 | 0.05 | 0.05 | 68 | 1019.8 |
| 20260902132055 | 70 | 263 | 7.0 | 10.4 | 0.00 | 0.05 | 0.05 | 71 | 1019.9 |
| 20260902131555 | 70 | 263 | 4.3 | 7.8 | 0.00 | 0.05 | 0.05 | 72 | 1019.9 |
| 20260902131055 | 69 | 244 | 2.6 | 7.8 | 0.00 | 0.05 | 0.05 | 74 | 1019.9 |
| 20260902125056 | 69 | 236 | 4.3 | 7.0 | 0.00 | 0.05 | 0.05 | 73 | 1019.9 |
| 20260902124056 | 69 | 267 | 2.6 | 8.7 | 0.00 | 0.05 | 0.05 | 73 | 1019.8 |
| 20260902123555 | 69 | 254 | 2.6 | 7.0 | 0.00 | 0.05 | 0.05 | 73 | 1019.9 |
| 20260902123055 | 69 | 288 | 4.3 | 7.8 | 0.00 | 0.05 | 0.05 | 72 | 1019.9 |
| 20260902122554 | 69 | 253 | 2.6 | 7.8 | 0.00 | 0.05 | 0.05 | 72 | 1019.9 |
| 20260902121055 | 69 | 281 | 4.3 | 10.4 | 0.00 | 0.05 | 0.05 | 72 | 1019.9 |
| 20260902115554 | 69 | 281 | 4.3 | 12.2 | 0.00 | 0.05 | 0.05 | 71 | 1019.9 |
| 20260902112554 | 68 | 287 | 4.3 | 10.4 | 0.00 | 0.05 | 0.05 | 81 | 1019.9 |
| 20260902112056 | 68 | 249 | 4.3 | 7.8 | 0.00 | 0.05 | 0.05 | 81 | 1020.0 |
| 20260902110054 | 66 | 232 | 2.6 | 4.3 | 0.05 | 0.05 | 0.05 | 88 | 1020.1 |
| 20260902105554 | 66 | 232 | 1.7 | 4.3 | 0.05 | 0.05 | 0.05 | 88 | 1020.0 |
| 20260902105055 | 66 | 232 | 2.6 | 6.1 | 0.05 | 0.05 | 0.05 | 88 | 1020.0 |
| 20260902104554 | 66 | 232 | 2.6 | 5.2 | 0.05 | 0.05 | 0.05 | 88 | 1020.1 |
| 20260902104054 | 66 | 227 | 1.7 | 2.6 | 0.05 | 0.05 | 0.05 | 88 | 1020.2 |
| 20260902103554 | 65 | 227 | 1.7 | 4.3 | 0.05 | 0.05 | 0.05 | 87 | 1020.1 |
| 20260902103056 | 66 | 227 | 1.7 | 4.3 | 0.05 | 0.05 | 0.05 | 87 | 1020.2 |
| 20260902100054 | 68 | 227 | 5.2 | 11.3 | 0.00 | 0.00 | 0.00 | 80 | 1020.0 |
| 20260902095554 | 69 | 255 | 4.3 | 7.8 | 0.00 | 0.00 | 0.00 | 80 | 1019.9 |
| 20260902095055 | 69 | 259 | 2.6 | 6.1 | 0.00 | 0.00 | 0.00 | 81 | 1019.9 |
| 20260902091055 | 68 | 242 | 6.1 | 10.4 | 0.00 | 0.00 | 0.00 | 82 | 1019.9 |
| 20260902084553 | 67 | 245 | 5.2 | 8.7 | 0.00 | 0.00 | 0.00 | 84 | 1019.9 |
| 20260902084054 | 67 | 262 | 4.3 | 7.8 | 0.00 | 0.00 | 0.00 | 85 | 1019.9 |
| 20260902075054 | 65 | 215 | 2.6 | 7.0 | 0.00 | 0.00 | 0.00 | 87 | 1019.4 |
| 20260902074554 | 65 | 229 | 2.6 | 6.1 | 0.00 | 0.00 | 0.00 | 88 | 1019.4 |
| 20260902074055 | 65 | 242 | 3.5 | 6.1 | 0.00 | 0.00 | 0.00 | 88 | 1019.4 |
| 20260902073555 | 65 | 225 | 4.3 | 7.8 | 0.00 | 0.00 | 0.00 | 88 | 1019.4 |
| 20260902073054 | 64 | 203 | 3.5 | 7.0 | 0.00 | 0.00 | 0.00 | 88 | 1019.4 |
| 20260902072554 | 64 | 233 | 4.3 | 7.8 | 0.00 | 0.00 | 0.00 | 89 | 1019.3 |
| 20260902072054 | 64 | 236 | 4.3 | 8.7 | 0.00 | 0.00 | 0.00 | 88 | 1019.2 |
| 20260902071554 | 64 | 241 | 3.5 | 7.8 | 0.00 | 0.00 | 0.00 | 88 | 1019.2 |
| 20260902071055 | 64 | 235 | 3.5 | 8.7 | 0.00 | 0.00 | 0.00 | 87 | 1019.1 |